{"data":{"norad_id":65349,"intl_designator":"2025-189AC","name":"STARLINK-34895","alt_names":[],"object_type":"PAYLOAD","status":"ACTIVE","operator":null,"country":"US","launch_date":"2025-08-27","launch_site_code":"AFETR","launch_vehicle":null,"mission":null,"orbit_class":"UNKNOWN","rcs_meters":null,"size_class":null,"mass_kg":null,"dimensions":null,"purposes":["comms"],"wikipedia_slug":null,"has_3d_model":false,"image_url":null,"decayed_at":null,"tle_current":{"epoch":"2026-05-24T14:27:35.774496Z","epoch_age_seconds":105519,"freshness":"FRESH","line1":"1 65349U 25189AC  26144.60249739  .00014967  00000+0  49307-3 0  9991","line2":"2 65349  53.1590 213.8322 0001071  81.6031 278.5091 15.31700707 42695","mean_motion":15.31700707,"eccentricity":0.0001071,"inclination_deg":53.159,"raan_deg":213.8322,"arg_perigee_deg":81.6031,"mean_anomaly_deg":278.5091,"bstar":0.00049307,"rev_number":4269,"period_min":94.01314456663,"perigee_km":470.00437319577,"apogee_km":471.47140219672,"semimajor_km":6848.8748876962,"source":"CELESTRAK","updated_at":"2026-05-25T13:38:20.763951Z"}}}